Wetbulb
35.51 34.68 34.29 33.98 33.36 33.04 32.22 32.53 32.43 32.65 32.28 30.85 29.79 29.67 28.47 29.16 29.44 30.09 31.62 31.68 32.22 33.17 31.69 30.94 30.64 31.28 30.03 29.85 30.98 30.57 30.11 30.04 31.72 30.38 31.16 33.81 35.41 32.73 33.62 34.77 33.67 34.24 34.72
33.05 32.33 31.93 31.10 31.30 31.01 31.37 31.63 32.28 32.26 32.71 32.20 31.84 31.36 29.89 29.09 28.90 29.31 30.09 31.21 31.03 31.39 31.66 30.16 29.56 29.66 29.18 28.90 28.56 28.65 27.80 29.05 30.25 27.49 27.71 26.68 31.71 30.88 33.39 33.88 34.24 32.17 33.61
31.89 30.64 30.08 29.82 29.90 29.29 30.12 31.39 31.29 31.65 31.87 31.73 31.28 30.50 30.57 29.19 28.31 28.02 27.72 29.20 30.37 30.47 30.15 29.66 29.00 28.66 28.64 27.05 27.10 27.30 27.11 25.94 28.28 29.48 27.21 24.79 23.55 25.42 31.31 31.40 31.89 31.27 31.13
33.24 30.95 29.92 29.46 29.51 29.51 30.73 31.52 32.23 31.17 31.85 31.79 30.14 28.45 27.61 26.98 27.55 26.89 27.61 28.02 29.47 29.24 29.75 29.61 28.71 27.93 28.06 26.59 26.91 28.85 26.48 26.34 25.30 27.73 31.35 29.08 27.35 24.03 23.49 28.74 30.80 30.73 31.53
32.81 30.20 29.58 29.73 29.63 28.45 27.94 28.55 29.78 30.33 30.86 30.40 30.30 28.52 26.86 27.01 26.54 26.60 26.46 26.91 27.66 28.60 28.78 29.13 28.40 27.25 27.38 26.57 25.92 25.28 25.07 26.04 25.17 25.51 25.82 25.86 26.24 26.72 24.63 22.74 25.01 27.81 29.32
30.43 29.23 29.01 28.95 28.05 27.28 27.06 26.75 26.99 27.41 28.68 28.51 28.43 27.62 26.58 26.09 25.31 25.41 25.01 25.46 26.24 26.74 27.17 28.37 27.06 26.81 25.92 25.09 25.06 25.08 24.84 24.65 25.35 25.90 25.47 25.48 24.65 24.52 23.74 22.01 22.41 22.83 26.16
29.61 28.25 27.25 26.82 26.41 25.26 25.31 26.29 25.86 25.34 26.95 26.51 26.64 26.91 26.47 25.97 25.09 24.85 24.44 24.25 24.36 24.62 24.59 25.68 25.09 24.62 24.92 25.36 25.16 24.44 25.08 25.45 24.88 24.15 24.47 25.44 25.30 26.08 25.31 24.16 22.88 22.36 24.55
28.40 27.32 26.98 26.38 25.18 25.64 24.58 25.10 24.78 24.16 25.01 24.61 24.64 24.81 25.40 24.36 24.07 23.82 23.30 22.98 23.19 23.73 24.83 24.53 24.55 24.80 25.23 24.85 24.26 24.03 24.29 24.76 25.10 23.56 23.61 24.54 24.49 25.39 25.50 24.89 22.59 20.74 22.21
26.33 26.12 26.36 25.83 25.02 24.74 24.26 23.73 23.27 23.36 23.49 23.01 22.84 22.50 22.78 23.18 22.61 22.96 23.04 22.75 23.27 25.21 23.93 23.08 22.76 23.45 23.77 23.66 23.23 22.59 22.12 22.56 23.22 23.54 23.88 23.01 23.91 24.87 24.64 24.72 24.30 22.54 18.29
25.47 24.65 24.41 23.88 23.86 24.46 24.15 23.89 23.36 22.46 22.72 22.84 22.57 22.91 22.22 22.76 22.58 22.66 22.18 22.38 22.03 22.38 21.73 21.43 21.52 21.56 21.79 22.13 21.64 20.83 21.79 21.53 21.88 23.17 21.75 21.66 22.43 22.83 23.69 24.69 24.11 23.80 22.20
23.77 23.66 23.27 23.23 23.36 23.37 23.05 22.59 22.42 22.08 21.76 22.16 21.42 21.10 21.05 21.45 21.75 21.67 21.46 21.48 21.99 21.14 20.92 20.85 20.59 20.29 20.19 20.57 19.80 19.83 20.16 19.82 20.01 20.62 20.55 21.22 21.54 21.29 21.38 22.60 22.68 22.65 22.46
21.46 21.54 21.29 20.78 20.71 20.60 20.89 20.58 20.87 21.05 21.08 21.45 20.97 21.18 21.36 21.14 20.34 20.42 21.17 21.67 20.10 20.81 20.05 20.07 19.75 19.76 19.81 19.55 18.97 18.68 19.63 18.53 18.22 18.85 19.35 19.67 23.60 20.43 20.58 20.61 20.88 21.72 21.98
19.26 18.96 18.85 18.44 18.19 18.66 18.65 18.59 19.41 19.29 20.26 20.37 20.17 20.21 19.96 19.48 18.90 19.42 20.06 20.19 19.40 18.97 18.94 20.06 18.91 18.99 19.64 19.19 19.19 18.82 18.63 18.52 18.52 18.55 18.42 18.77 19.20 18.85 19.82 19.79 19.96 21.29 23.63
20.29 19.21 18.75 18.17 17.79 17.90 14.92 14.43 17.24 18.75 18.25 18.85 18.11 18.29 18.36 18.72 18.37 18.53 18.75 18.64 18.39 18.11 17.97 18.44 18.55 18.94 18.94 20.17 19.52 20.29 18.60 17.98 19.13 20.25 20.18 19.30 19.22 18.86 18.79 20.38 20.07 21.56 20.86
19.55 19.31 18.11 16.94 15.38 14.51 14.78 14.35 14.13 14.91 16.85 15.24 16.42 17.52 18.75 18.67 18.11 18.20 18.28 18.71 17.83 18.66 18.15 18.13 18.03 17.92 18.68 19.81 18.42 19.63 18.83 18.49 18.11 19.71 21.04 21.72 22.97 25.47 24.94 22.97 20.37 19.58 19.08
20.73 20.36 20.51 20.19 19.00 17.22 14.25 16.62 14.56 14.79 13.75 14.96 15.85 17.68 17.59 17.72 17.14 16.89 16.83 16.98 17.02 16.78 17.11 17.03 17.47 17.04 19.74 22.63 24.20 23.65 20.12 20.23 20.01 19.06 19.90 21.04 23.25 23.70 26.71 27.98 28.94 28.02 24.10
17.88 17.83 18.10 18.69 18.75 17.78 18.22 17.51 17.78 16.91 15.24 14.40 15.05 15.30 16.08 15.83 15.84 16.17 15.71 15.35 15.15 15.40 15.54 15.89 16.44 16.58 17.25 22.81 24.15 24.93 22.16 20.97 19.93 19.62 19.93 20.43 22.15 23.03 22.16 24.50 26.76 27.19 28.54
15.44 16.42 16.59 17.03 16.92 16.43 16.19 15.44 13.17 10.92 10.99 9.53 10.08 12.37 12.18 12.26 13.10 13.07 13.15 13.45 14.21 13.87 14.30 14.77 15.46 15.72 17.61 22.58 23.75 24.50 21.53 20.39 19.94 19.54 19.24 18.78 19.06 20.20 21.06 21.03 20.99 21.73 22.59
14.38 14.60 14.65 14.36 13.50 12.65 14.13 13.69 9.60 9.88 8.43 8.54 9.72 10.57 9.39 6.92 7.77 8.21 8.82 10.94 11.69 12.30 13.20 15.25 14.66 14.25 15.46 21.26 22.81 22.40 19.64 19.29 18.46 19.63 19.20 18.84 18.68 22.02 24.21 21.21 20.55 21.02 22.10
15.28 14.83 15.30 14.46 12.31 11.87 11.80 8.50 7.10 4.83 4.62 8.23 9.06 7.38 4.90 5.92 4.68 6.28 5.67 7.26 9.95 12.09 13.98 14.79 14.77 16.89 15.06 20.18 22.03 21.69 19.59 17.30 18.32 18.78 19.31 22.36 21.29 23.60 24.53 21.14 19.71 18.03 19.57
14.55 15.53 14.34 12.58 13.07 12.59 9.92 7.65 7.14 5.24 8.16 8.83 7.82 6.10 5.13 5.84 5.89 2.88 1.94 1.99 5.94 10.66 9.88 11.62 12.49 13.00 14.46 14.29 20.41 21.68 19.04 17.96 17.33 17.26 17.23 18.77 21.88 22.99 23.90 24.88 21.66 21.70 23.36
13.78 14.60 13.28 13.11 11.70 11.43 9.85 8.60 7.17 8.58 7.17 5.30 5.68 4.41 3.28 5.61 7.76 1.51 1.23 1.12 3.04 4.53 5.81 6.37 8.09 10.71 11.99 16.84 18.52 20.89 21.67 21.17 17.93 16.95 18.16 18.46 21.90 22.69 23.51 23.47 24.81 25.85 25.80
12.70 13.68 12.53 12.23 12.95 11.73 9.92 9.80 10.14 9.24 8.68 6.80 5.39 3.15 3.43 4.16 3.19 1.40 2.23 5.03 5.08 4.83 4.50 4.77 5.02 6.34 10.73 11.59 17.31 19.62 21.06 21.92 19.35 19.75 20.51 22.57 23.06 23.71 23.58 24.89 25.43 25.73 22.61
10.42 11.81 10.93 9.99 9.87 11.31 13.00 11.12 11.03 12.65 9.99 8.58 7.56 7.46 6.92 6.91 6.72 8.24 7.57 5.77 5.28 5.03 4.98 4.63 4.64 5.29 7.29 9.71 11.77 13.46 13.23 17.00 17.41 17.97 16.08 18.48 20.48 22.20 21.74 21.64 21.87 21.39 21.76
10.01 10.64 10.06 10.92 10.65 12.05 12.36 12.13 13.01 10.99 10.85 9.82 10.55 9.46 9.71 7.93 8.83 9.24 7.57 7.47 7.93 8.05 5.37 5.33 5.79 5.38 5.24 7.83 13.27 13.19 11.29 11.13 14.07 14.83 12.16 12.36 13.43 13.83 14.83 15.93 17.15 18.21 19.24
8.09 7.23 7.90 8.24 8.58 9.28 9.76 11.39 11.70 10.24 10.48 9.92 10.61 10.38 9.81 9.09 9.91 8.83 8.35 15.42 16.94 18.37 18.54 18.64 13.05 8.72 14.96 16.89 18.02 18.88 19.70 20.86 22.01 17.60 14.16 13.24 13.71 14.15 15.24 15.98 16.64 18.19 18.64
MSLP
1018.59 1019.87 1021.06 1022.09 1022.79 1023.41 1023.96 1024.50 1024.91 1025.47 1025.85 1026.22 1026.75 1027.26 1027.83 1028.44 1028.81 1028.99 1029.10 1029.25 1029.34 1029.49 1029.76 1030.04 1030.17 1030.27 1030.58 1030.83 1030.79 1030.76 1030.76 1030.75 1030.46 1030.19 1029.71 1029.14 1028.97 1029.31 1029.38 1029.40 1029.70 1029.78 1029.81
1018.33 1019.64 1020.90 1021.99 1022.83 1023.47 1024.04 1024.57 1025.03 1025.41 1025.75 1026.09 1026.44 1027.02 1027.82 1028.66 1029.10 1029.35 1029.49 1029.67 1029.81 1029.94 1030.16 1030.53 1030.78 1030.89 1031.16 1031.37 1031.54 1031.56 1031.56 1031.53 1031.37 1031.55 1031.20 1030.71 1030.13 1029.89 1029.68 1029.66 1029.76 1030.07 1030.03
1017.54 1019.22 1020.66 1021.88 1022.74 1023.50 1024.12 1024.58 1025.04 1025.37 1025.75 1025.99 1026.50 1027.24 1027.95 1028.69 1029.25 1029.76 1030.01 1030.12 1030.26 1030.44 1030.65 1030.87 1031.17 1031.42 1031.57 1031.92 1032.03 1032.15 1032.17 1032.33 1032.02 1031.91 1032.21 1031.95 1031.83 1031.41 1030.24 1030.16 1030.17 1030.28 1030.36
1017.18 1018.85 1020.36 1021.64 1022.67 1023.59 1024.14 1024.70 1025.15 1025.59 1025.95 1026.21 1026.83 1027.40 1027.92 1028.65 1029.18 1029.73 1030.22 1030.44 1030.61 1030.86 1030.98 1031.19 1031.45 1031.71 1031.92 1032.23 1032.25 1032.28 1032.54 1032.61 1032.77 1032.44 1032.47 1032.54 1032.66 1032.50 1031.94 1030.80 1030.49 1030.53 1030.58
1016.63 1018.51 1020.03 1021.40 1022.62 1023.49 1024.22 1024.83 1025.41 1025.85 1026.17 1026.54 1027.01 1027.39 1028.00 1028.59 1029.20 1029.88 1030.36 1030.65 1030.89 1031.12 1031.27 1031.40 1031.65 1031.93 1032.18 1032.38 1032.55 1032.73 1032.85 1032.94 1033.06 1033.15 1033.16 1033.04 1032.89 1032.77 1032.77 1031.89 1031.42 1031.01 1030.93
1016.93 1018.70 1020.22 1021.56 1022.80 1023.84 1024.68 1025.32 1025.84 1026.27 1026.55 1026.78 1027.05 1027.40 1027.96 1028.70 1029.43 1029.89 1030.34 1030.68 1031.02 1031.33 1031.52 1031.56 1031.83 1032.02 1032.36 1032.61 1032.77 1032.87 1032.93 1033.13 1033.08 1033.19 1033.23 1033.30 1033.35 1033.10 1033.12 1032.61 1032.14 1031.91 1031.34
1017.16 1018.80 1020.35 1021.74 1022.90 1023.95 1024.90 1025.59 1026.13 1026.63 1026.79 1027.04 1027.33 1027.68 1028.22 1028.83 1029.43 1029.84 1030.26 1030.69 1031.06 1031.42 1031.74 1031.78 1032.08 1032.31 1032.47 1032.61 1032.79 1032.93 1032.96 1032.98 1033.02 1033.12 1033.17 1033.16 1033.13 1033.07 1033.07 1032.93 1032.58 1032.15 1031.58
1017.77 1019.23 1020.55 1021.87 1023.00 1023.96 1024.84 1025.54 1026.27 1026.80 1027.08 1027.43 1027.75 1028.11 1028.58 1029.06 1029.53 1030.03 1030.46 1030.86 1031.17 1031.49 1031.66 1031.94 1032.12 1032.26 1032.40 1032.57 1032.73 1032.86 1032.89 1032.85 1032.86 1032.98 1033.02 1033.00 1033.00 1032.93 1032.85 1032.85 1032.76 1032.08 1031.73
1018.64 1019.75 1020.80 1021.84 1022.96 1023.90 1024.74 1025.45 1026.24 1026.94 1027.40 1027.87 1028.27 1028.68 1029.07 1029.46 1029.94 1030.42 1030.71 1031.11 1031.27 1031.43 1031.79 1032.00 1032.22 1032.32 1032.46 1032.63 1032.79 1032.88 1032.90 1032.84 1032.78 1032.75 1032.70 1032.76 1032.61 1032.51 1032.56 1032.44 1032.41 1032.34 1031.67
1019.59 1020.44 1021.25 1022.15 1023.10 1023.96 1024.88 1025.63 1026.37 1027.17 1027.75 1028.24 1028.69 1029.13 1029.56 1029.80 1030.16 1030.53 1030.91 1031.16 1031.49 1031.70 1031.96 1032.14 1032.24 1032.36 1032.45 1032.47 1032.64 1032.73 1032.62 1032.67 1032.61 1032.48 1032.62 1032.60 1032.47 1032.33 1032.17 1032.10 1031.99 1031.91 1031.64
1021.04 1021.69 1022.32 1023.03 1023.72 1024.50 1025.37 1026.15 1026.82 1027.50 1028.08 1028.49 1028.93 1029.37 1029.78 1030.04 1030.28 1030.58 1030.77 1031.06 1031.37 1031.71 1031.99 1032.11 1032.19 1032.30 1032.42 1032.35 1032.43 1032.43 1032.41 1032.44 1032.38 1032.41 1032.37 1032.27 1032.22 1032.03 1031.92 1031.78 1031.64 1031.57 1031.46
1022.48 1023.09 1023.72 1024.22 1024.92 1025.57 1026.18 1026.83 1027.48 1028.03 1028.43 1028.83 1029.19 1029.50 1029.77 1030.04 1030.29 1030.48 1030.62 1030.81 1031.22 1031.49 1031.80 1031.90 1032.01 1032.08 1032.08 1032.06 1032.26 1032.12 1031.99 1032.23 1032.17 1032.08 1031.97 1031.80 1031.76 1031.56 1031.44 1031.35 1031.13 1031.04 1030.88
1023.87 1024.48 1025.09 1025.70 1026.25 1026.68 1027.11 1027.74 1028.36 1028.66 1028.85 1029.13 1029.45 1029.72 1029.94 1030.14 1030.28 1030.38 1030.45 1030.61 1030.98 1031.34 1031.55 1031.53 1031.76 1031.77 1031.73 1031.82 1031.93 1031.93 1031.93 1031.86 1031.75 1031.73 1031.58 1031.41 1031.34 1031.20 1030.89 1030.80 1030.59 1030.50 1030.20
1025.02 1025.58 1026.18 1026.79 1027.30 1027.72 1028.09 1028.50 1028.92 1029.03 1029.28 1029.50 1029.76 1029.96 1030.03 1030.09 1030.17 1030.23 1030.30 1030.48 1030.74 1030.99 1031.19 1031.21 1031.18 1031.35 1031.41 1031.30 1031.41 1031.28 1031.39 1031.27 1031.17 1031.07 1030.98 1030.86 1030.68 1030.54 1030.31 1030.10 1029.91 1029.80 1029.64
1025.58 1026.11 1026.76 1027.37 1027.96 1028.52 1028.79 1029.17 1029.47 1029.51 1029.54 1029.76 1029.97 1029.93 1029.95 1029.98 1030.07 1030.15 1030.21 1030.25 1030.45 1030.51 1030.61 1030.66 1030.54 1031.01 1030.79 1030.73 1030.85 1030.68 1030.61 1030.55 1030.49 1030.37 1030.20 1030.03 1029.71 1029.30 1029.09 1028.78 1028.82 1028.90 1028.87
1026.27 1026.78 1027.20 1027.79 1028.37 1028.76 1029.06 1029.26 1029.47 1029.66 1029.66 1029.78 1029.79 1029.87 1029.90 1029.91 1029.89 1029.95 1029.99 1030.02 1030.10 1030.11 1030.15 1030.12 1030.15 1030.19 1029.92 1029.73 1029.41 1029.25 1029.43 1029.52 1029.51 1029.51 1029.37 1029.26 1028.97 1028.74 1028.25 1027.73 1027.26 1027.10 1027.31
1027.80 1028.03 1028.31 1028.54 1028.75 1028.85 1028.90 1028.91 1029.02 1029.19 1029.34 1029.48 1029.56 1029.62 1029.61 1029.57 1029.59 1029.65 1029.71 1029.71 1029.70 1029.73 1029.62 1029.50 1029.40 1029.26 1029.14 1028.87 1028.59 1028.32 1028.27 1028.35 1028.46 1028.56 1028.48 1028.31 1028.11 1027.98 1027.81 1027.49 1026.88 1026.37 1026.00
1028.79 1028.59 1028.54 1028.57 1028.57 1028.63 1028.70 1028.67 1028.75 1028.97 1029.15 1029.24 1029.32 1029.23 1029.24 1029.26 1029.27 1029.29 1029.27 1029.30 1029.33 1029.22 1029.03 1028.76 1028.63 1028.46 1028.25 1027.94 1027.68 1027.45 1027.34 1027.36 1027.48 1027.63 1027.64 1027.59 1027.53 1027.57 1027.31 1026.80 1026.29 1025.91 1025.70
1028.68 1028.56 1028.46 1028.41 1028.40 1028.53 1028.49 1028.56 1028.71 1028.79 1028.74 1028.72 1028.59 1028.52 1028.65 1028.74 1028.78 1028.79 1028.77 1028.80 1028.77 1028.54 1028.22 1027.99 1027.80 1027.60 1027.35 1027.16 1026.86 1026.72 1026.61 1026.50 1026.53 1026.64 1026.68 1026.72 1026.46 1026.42 1026.08 1025.59 1025.12 1024.81 1024.55
1028.25 1028.07 1027.89 1027.85 1027.98 1028.05 1028.09 1028.24 1028.31 1028.34 1028.31 1028.02 1027.68 1027.63 1027.70 1027.85 1027.97 1027.91 1028.04 1028.01 1027.97 1027.69 1027.52 1027.09 1026.86 1026.68 1026.40 1026.28 1026.04 1025.94 1025.82 1025.56 1025.57 1025.57 1025.54 1025.48 1025.24 1025.03 1024.73 1024.32 1024.14 1023.77 1023.48
1027.82 1027.47 1027.23 1027.33 1027.23 1027.29 1027.48 1027.50 1027.45 1027.50 1027.19 1027.13 1027.03 1026.97 1026.95 1027.02 1026.99 1027.06 1027.19 1027.24 1027.26 1027.00 1026.76 1026.42 1026.15 1025.92 1025.80 1025.80 1025.49 1025.21 1024.89 1024.70 1024.57 1024.50 1024.47 1024.49 1024.46 1024.06 1023.61 1023.05 1022.75 1022.59 1022.49
1027.13 1026.97 1026.71 1026.46 1026.36 1026.24 1026.39 1026.30 1026.26 1026.03 1026.08 1026.16 1026.25 1026.31 1026.30 1026.37 1026.40 1026.50 1026.50 1026.51 1026.55 1026.43 1026.15 1025.95 1025.63 1025.43 1025.34 1025.09 1024.78 1024.30 1023.93 1023.72 1023.44 1023.41 1023.42 1023.37 1023.29 1022.88 1022.43 1021.90 1021.62 1021.21 1020.82
1027.14 1026.71 1026.34 1025.91 1025.76 1025.63 1025.41 1025.04 1024.70 1024.69 1024.77 1024.97 1025.15 1025.31 1025.39 1025.54 1025.61 1025.76 1025.77 1025.77 1025.73 1025.61 1025.36 1025.26 1024.96 1024.68 1024.52 1024.27 1023.95 1023.44 1022.91 1022.52 1022.22 1022.27 1022.27 1022.03 1021.62 1021.28 1020.94 1020.74 1020.48 1020.28 1020.11
1027.12 1026.57 1026.07 1025.63 1025.21 1024.97 1024.63 1024.23 1023.76 1023.53 1023.57 1023.70 1023.91 1024.07 1024.38 1024.54 1024.53 1024.53 1024.56 1024.63 1024.60 1024.51 1024.38 1024.28 1024.05 1023.87 1023.71 1023.43 1023.19 1022.81 1022.58 1022.27 1021.91 1021.69 1021.47 1021.23 1020.91 1020.51 1019.98 1019.76 1019.83 1019.63 1019.39
1027.20 1026.53 1025.82 1025.32 1024.89 1024.50 1024.00 1023.50 1023.01 1022.82 1022.85 1022.86 1022.96 1023.03 1023.09 1023.10 1023.03 1023.04 1023.19 1023.13 1022.97 1023.09 1023.04 1022.96 1022.93 1022.82 1022.56 1022.31 1022.06 1021.93 1021.87 1021.66 1021.43 1021.16 1021.07 1020.86 1020.50 1020.12 1019.77 1019.43 1019.10 1018.74 1018.62
1027.59 1026.95 1026.21 1025.33 1024.62 1024.13 1023.58 1023.07 1022.61 1022.36 1022.29 1022.20 1022.13 1022.03 1021.93 1021.87 1021.82 1021.81 1021.72 1021.45 1020.99 1020.86 1020.60 1020.35 1020.64 1020.67 1020.36 1020.52 1020.29 1020.00 1019.67 1019.39 1019.35 1019.36 1019.49 1019.53 1019.37 1019.08 1018.82 1018.51 1018.16 1017.90 1017.90
Wind_Speed
11 13 13 10 8 8 8 8 9 8 5 4 5 5 4 5 4 5 7 6 6 7 6 5 6 5 5 6 7 5 5 5 7 4 6 2 5 6 4 5 5 5 5
15 14 13 10 8 7 8 8 8 7 5 4 4 5 5 5 5 4 6 6 6 6 7 6 5 6 5 6 6 6 4 3 5 3 2 4 4 5 2 3 5 6 4
19 16 15 12 9 8 8 8 8 6 6 6 7 6 7 4 4 4 4 5 6 6 6 6 5 5 5 4 5 5 6 4 4 6 3 4 2 4 3 4 4 5 4
17 17 15 13 11 8 7 7 7 7 6 7 6 8 5 6 4 4 4 4 6 6 6 6 6 5 4 5 4 5 3 4 4 3 4 1 1 2 4 4 5 4 5
18 18 16 13 10 9 8 7 7 6 6 6 7 5 6 6 4 4 7 6 5 6 5 5 5 5 4 4 4 4 4 2 2 2 2 3 2 4 4 4 4 4 4
17 15 13 11 9 9 8 7 7 6 6 5 6 8 9 8 5 5 5 4 4 4 5 3 4 4 4 4 3 2 3 1 2 2 2 2 2 2 2 3 3 4 4
17 16 15 12 11 11 9 8 8 7 6 6 6 7 8 7 8 5 4 5 3 3 5 2 3 3 3 2 1 2 2 3 2 3 3 2 3 2 3 4 5 4 3
12 14 14 12 13 12 9 9 8 7 7 7 7 6 7 4 5 5 4 3 3 4 4 4 3 1 1 1 1 1 2 4 3 5 4 3 4 3 3 4 4 8 5
10 12 12 11 12 10 9 9 9 7 7 7 6 6 6 6 5 6 3 3 3 3 3 2 1 1 1 1 2 2 3 3 4 4 5 4 4 3 4 4 4 5 8
7 8 9 9 7 8 8 8 9 8 7 7 6 5 6 5 5 4 3 3 2 2 1 1 1 1 2 2 3 3 4 4 3 4 5 4 3 4 4 4 4 4 7
7 7 7 7 8 8 8 8 8 8 7 6 6 6 5 5 4 3 2 3 2 1 2 2 2 3 3 3 3 4 5 6 5 5 5 6 6 4 4 4 4 5 5
7 8 9 8 7 7 7 6 6 7 6 6 6 5 5 5 4 4 4 3 2 2 3 3 4 4 4 4 5 5 5 5 6 6 6 6 7 6 5 4 6 6 6
8 7 8 7 6 6 6 5 4 4 4 5 4 4 4 4 5 4 4 4 4 4 4 5 5 5 5 5 5 5 6 6 6 6 7 7 6 7 5 5 5 6 8
6 5 6 5 5 5 5 4 3 3 2 3 2 4 4 4 4 4 4 4 5 5 6 6 5 5 6 7 7 8 7 6 8 8 8 8 8 8 7 8 8 8 8
7 6 5 4 3 3 2 1 2 1 3 3 3 4 4 4 5 5 5 5 5 6 6 6 6 7 7 7 8 10 10 9 8 8 9 10 12 20 17 10 10 10 9
8 8 7 5 4 4 4 5 5 5 3 4 6 6 6 6 6 5 5 5 6 6 6 7 8 8 8 16 19 15 9 10 11 10 9 10 17 17 24 25 27 20 11
10 8 6 3 1 1 2 5 5 5 6 7 8 7 8 8 7 6 6 8 7 6 8 8 8 10 9 19 21 21 11 10 10 10 10 11 10 17 12 17 24 23 26
5 4 2 4 5 4 6 5 4 5 6 6 7 9 8 8 7 8 9 9 9 10 9 10 10 10 10 21 22 22 13 11 11 11 11 12 13 13 15 15 15 16 14
6 6 6 6 6 6 7 6 4 6 6 8 11 10 9 9 9 10 10 10 10 10 10 12 11 11 11 21 22 20 12 12 12 11 12 13 14 18 25 17 16 16 14
7 9 10 9 6 7 7 6 8 6 8 11 12 9 8 11 11 11 10 8 9 11 10 13 12 16 13 20 23 20 10 12 10 11 13 22 20 25 27 18 16 16 15
10 9 7 10 11 9 8 10 10 10 12 10 9 7 7 10 10 8 6 6 8 11 10 12 11 11 12 11 23 25 14 11 10 10 9 9 23 27 27 28 15 15 15
13 11 10 9 6 6 9 12 12 12 9 8 9 8 7 7 7 7 6 6 7 9 10 10 10 10 11 21 23 26 27 23 14 12 11 12 25 27 29 25 26 30 27
14 12 11 12 10 7 6 10 9 8 11 10 9 8 7 7 7 7 7 7 9 9 9 8 9 9 9 10 23 25 27 28 18 11 15 26 29 30 26 27 28 28 13
15 14 13 13 13 9 10 9 8 7 7 9 9 8 9 9 10 9 8 9 9 9 9 9 9 8 8 8 8 10 10 18 16 16 13 17 23 26 22 17 14 9 8
15 15 14 10 12 13 13 11 11 6 8 6 7 8 9 11 9 9 9 10 11 11 9 10 9 9 9 10 17 14 10 10 14 16 10 10 10 10 10 10 10 9 8
13 15 16 14 14 14 14 13 11 7 9 9 8 8 8 8 9 9 9 21 22 26 27 27 19 13 23 25 25 25 25 25 26 13 11 11 11 12 11 11 12 8 8
Wind_Direction
165 153 152 149 137 142 142 140 134 135 134 132 128 120 109 97 81 76 78 70 64 55 62 57 45 48 55 49 34 11 16 19 4 7 345 17 127 58 55 66 73 57 26
165 157 153 148 154 148 143 137 143 158 162 146 136 117 120 102 102 85 78 77 64 69 73 70 60 49 59 49 43 34 13 18 31 23 284 4 342 13 27 68 54 60 37
168 162 160 158 157 157 156 149 143 147 105 102 99 94 95 99 113 108 84 85 80 72 74 66 69 58 60 59 52 39 38 16 2 50 79 359 352 327 332 47 34 33 32
165 162 161 160 161 161 141 128 134 126 122 126 116 134 145 148 127 116 118 96 96 85 82 80 77 69 65 59 34 43 34 38 15 356 30 28 208 331 319 331 352 19 12
162 159 158 157 158 144 137 132 127 132 147 164 156 167 113 114 108 117 129 125 104 101 84 85 83 77 68 64 59 37 22 14 43 21 349 351 313 259 246 282 304 354 355
147 149 149 152 143 127 125 128 125 134 144 140 139 124 123 130 134 147 141 145 137 133 111 102 98 96 81 63 34 17 343 345 334 300 284 227 249 318 319 314 321 283 292
149 151 155 157 148 141 138 143 144 143 134 117 100 109 124 138 145 141 133 136 138 132 124 108 92 74 84 63 4 324 305 285 257 270 275 285 269 261 265 282 283 276 293
144 149 156 159 146 150 150 152 144 138 132 120 106 93 94 91 95 87 91 94 93 104 97 89 84 80 92 24 320 298 294 271 265 264 268 264 264 265 254 258 278 292 274
135 148 151 151 146 151 152 145 138 137 133 124 113 109 97 102 110 103 96 111 105 124 117 99 123 23 340 300 283 261 268 283 282 278 273 264 260 259 258 251 240 260 286
108 123 131 131 131 133 133 127 123 127 123 124 128 121 111 98 100 107 139 115 103 118 119 170 241 275 286 282 278 269 267 271 274 276 279 278 272 271 267 265 259 247 264
78 83 85 95 106 102 108 118 124 130 133 131 120 121 133 136 140 158 165 157 151 171 232 232 249 264 268 276 276 271 272 271 266 268 264 261 264 260 262 266 259 267 264
75 75 73 72 78 89 90 100 104 123 140 144 140 156 148 153 176 198 202 186 202 236 233 241 246 249 254 261 260 258 273 271 266 261 265 266 273 269 260 250 252 256 256
67 68 67 66 71 76 82 89 93 103 120 127 142 170 183 187 206 216 213 200 212 229 246 246 240 244 246 249 253 252 251 253 251 249 254 257 255 261 257 259 263 265 271
95 98 89 89 87 80 74 59 71 112 100 114 163 209 218 230 232 238 230 216 217 226 236 238 238 243 241 250 251 254 252 247 255 255 257 253 249 253 253 260 263 265 266
110 114 116 112 102 109 127 151 248 268 175 177 214 229 232 237 243 243 241 236 232 237 231 236 232 233 239 246 241 244 246 247 247 252 259 261 259 260 251 243 240 245 247
70 70 73 90 125 154 184 201 208 210 194 218 222 224 231 233 232 234 240 243 242 239 237 239 239 238 241 250 258 258 239 243 252 259 261 265 274 278 278 278 278 263 234
36 31 26 24 356 288 226 234 218 199 206 219 232 228 228 230 228 235 241 246 250 251 248 245 241 245 241 255 261 263 261 254 252 256 263 267 269 276 279 285 283 284 285
339 330 308 276 251 230 231 237 215 214 215 220 224 232 229 229 228 229 237 244 248 248 249 248 247 252 252 257 261 264 263 259 256 256 259 261 263 261 264 263 263 262 262
255 250 257 265 262 254 259 261 249 234 229 232 236 238 223 221 226 230 233 240 246 248 249 252 250 250 252 258 262 266 268 266 262 260 258 258 260 264 269 270 271 273 270
269 263 260 252 241 244 237 242 250 240 243 247 248 235 214 220 223 228 229 229 236 247 249 253 250 249 253 254 260 262 262 263 263 260 259 264 267 268 269 264 262 265 264
307 296 282 255 252 241 228 240 247 243 249 256 254 240 223 224 228 225 215 214 230 248 250 254 254 255 254 258 261 262 262 263 264 262 263 262 268 272 274 274 268 265 262
310 307 301 294 271 236 216 239 240 241 233 227 237 236 230 232 238 219 223 219 222 236 243 246 252 252 252 258 259 260 261 262 260 257 257 257 264 272 273 273 272 272 273
314 311 303 300 297 279 246 263 258 226 222 223 226 223 226 227 221 228 232 230 228 236 241 240 247 248 244 246 257 261 261 260 262 260 259 261 263 264 267 277 280 276 273
310 307 304 299 295 291 286 277 276 262 227 227 228 222 220 232 227 231 231 230 231 235 236 237 243 249 250 250 249 252 264 276 280 288 288 280 275 270 268 272 282 281 270
310 300 294 301 305 303 297 289 282 268 270 255 247 231 230 237 246 226 225 230 227 223 231 234 235 235 238 235 242 240 237 241 244 249 247 250 255 258 260 262 263 255 260
328 322 314 309 304 297 293 291 279 268 272 269 258 248 237 237 239 237 242 253 253 239 245 245 220 229 231 237 245 251 257 258 249 237 234 235 239 243 248 250 255 250 257